Weather History for Burnet, TX

Change the Weather History Date:

Tuesday, February 5, 2013

  Actual Average Record
Temperature  
Mean Temperature 60 °F -  
Max Temperature 75 °F 58 °F 77 °F (2006)
Min Temperature 46 °F 39 °F 19 °F (2011)
Degree Days  
Heating Degree Days 4    
Growing Degree Days 10 (Base 50)    
Moisture  
Dew Point 44 °F    
Average Humidity 58    
Maximum Humidity 89    
Minimum Humidity 26    
Precipitation  
Precipitation 0.00 in - - ()
Sea Level Pressure  
Sea Level Pressure 29.94 in    
Wind  
Wind Speed 3 mph (North)    
Max Wind Speed 9 mph    
Max Gust Speed -    
Visibility 10 miles    
Events      
Averages and records for this station are not official NWS values.
T = Trace of Precipitation, MM = Missing Value Source: NWS Daily Summary

Daily Weather History Graph

Daily Weather History Graph

Search for Another Location

Airport:

Trip Planner

Search our weather history database for the weather conditions in past years. The results will help you decide how hot, cold, wet, or windy it might be!

Date:

Astronomy

Feb. 05, 2013 Rise Set
Actual Time 7:21 AM CST 6:12 PM CST
Civil Twilight 6:56 AM CST 6:37 PM CST
Nautical Twilight 6:27 AM CST 7:06 PM CST
Astronomical Twilight 5:59 AM CST 7:34 PM CST
Moon 2:57 AM CST (2/5) 1:39 PM CST (2/5)
Length of Visible Light 11h 41m
Length of Day
10h 51m
Waning Crescent, 26% of the Moon is Illuminated
Feb 5
Waning Crescent
Feb 10
New
Feb 17
First Quarter
Feb 25
Full
Mar 4
Last Quarter

Hourly Weather History & Observations

Time (CST) Temp. Dew Point Humidity Pressure Visibility Wind Dir Wind Speed Gust Speed Precip Events Conditions
12:53 AM 52.0 °F 48.0 °F 86% 29.88 in 10.0 mi Calm Calm - N/A   Clear
1:53 AM 51.1 °F 46.9 °F 86% 29.88 in 10.0 mi Calm Calm - N/A   Clear
2:53 AM 50.0 °F 46.9 °F 89% 29.88 in 10.0 mi Calm Calm - N/A   Clear
3:53 AM 50.0 °F 46.0 °F 86% 29.89 in 10.0 mi Calm Calm - N/A   Clear
4:53 AM 50.0 °F 45.0 °F 83% 29.89 in 10.0 mi WNW 5.8 mph - N/A   Clear
5:53 AM 50.0 °F 42.1 °F 74% 29.91 in 10.0 mi NNW 5.8 mph - N/A   Clear
6:53 AM 46.9 °F 42.1 °F 83% 29.93 in 10.0 mi North 5.8 mph - N/A   Clear
7:53 AM 48.0 °F 42.1 °F 80% 29.96 in 10.0 mi NNW 4.6 mph - N/A   Clear
8:53 AM 54.0 °F 42.1 °F 64% 29.98 in 10.0 mi NW 4.6 mph - N/A   Clear
9:53 AM 59.0 °F 43.0 °F 55% 29.99 in 10.0 mi WNW 8.1 mph - N/A   Clear
10:53 AM 64.0 °F 45.0 °F 50% 30.00 in 10.0 mi WNW 6.9 mph - N/A   Clear
11:53 AM 71.1 °F 45.0 °F 39% 29.99 in 10.0 mi NNW 8.1 mph - N/A   Clear
12:53 PM 73.0 °F 44.1 °F 35% 29.96 in 10.0 mi NW 5.8 mph - N/A   Clear
1:53 PM 75.0 °F 41.0 °F 29% 29.94 in 10.0 mi Variable 3.5 mph - N/A   Clear
2:53 PM 75.9 °F 39.9 °F 27% 29.91 in 10.0 mi ENE 4.6 mph - N/A   Clear
3:53 PM 75.9 °F 39.0 °F 26% 29.90 in 10.0 mi Calm Calm - N/A   Clear
4:53 PM 75.9 °F 39.0 °F 26% 29.90 in 10.0 mi Calm Calm - N/A   Clear
5:53 PM 73.0 °F 39.9 °F 30% 29.90 in 10.0 mi ENE 4.6 mph - N/A   Clear
6:53 PM 66.0 °F 41.0 °F 40% 29.94 in 10.0 mi Calm Calm - N/A   Clear
7:53 PM 63.0 °F 46.9 °F 56% 29.96 in 10.0 mi ENE 6.9 mph - N/A   Clear
8:53 PM 62.1 °F 48.9 °F 62% 29.98 in 10.0 mi ENE 6.9 mph - N/A   Clear
9:53 PM 62.1 °F 48.9 °F 62% 29.97 in 10.0 mi ENE 9.2 mph - N/A   Clear
10:53 PM 61.0 °F 48.9 °F 64% 29.98 in 10.0 mi ENE 4.6 mph - N/A   Clear
11:53 PM 62.1 °F 48.9 °F 62% 29.97 in 10.0 mi SE 4.6 mph - N/A   Overcast